STARLINK-3888, 52454

Orbit data source: Space-Track

STARLINK-3888, 52454 is a payload satellite owned by SpaceX/Seattle (US) in LEO that was launched on Fri, 06 May 2022 UTC via an FALCON 9 launch vehicle from the Air Force Eastern Test Range (AFETR). Payload-class satellites include a variety of spacecraft equipped with specific instruments for various scientific and technological missions. These include communications satellites like Starlink; space stations such as the ISS; scientific satellites like the Hubble; Earth observation satellites from companies like Planet Labs, Umbra, and HawkEye 360; GPS; miniature CubeSats for education and research; and military/defense satellites.

Loading next visibility...
Identifier
52454, 2022-049D
Orbit
LEO
Country
Flag of USUS
Related business
Manufacturer
SpaceX/Seattle
Mission
Operational Commercial Communications
Bus & Motor
STARLINK, Unknown motor
Mass
297 kg wet, ~220 kg dry
Launch date (UTC)
2022-05-06 (4 years ago)
Launch vehicle
FALCON 9
Launch site
Air Force Eastern Test Range (AFETR)
Object type
Payload
Rocket body
Debris
Shape & HBR
Box + 1 Pan, 10.1 m
Radar Cross Section
13.562 m², Large (>1 m²)

Expand to show TLE details & history
Last TLE update: 1 day ago

TLE from 1 day ago
0 STARLINK-3888
1 52454U 22049D   26206.28887579  .00000370  00000-0  41345-4 0  9998
2 52454  53.1599 171.0871 0001321  65.5984 294.5146 15.08830761232886
Epoch: 2026-07-25T06:55Z
TLE epoch observation values (Epoch: 2026-07-25T06:55:58.868Z)
Latitude
0.00006°
Longitude
124.08856°
Altitude
540.284 km
Speed
7.594 km/s
True Right ascension
11h 24m 20s
True Declination
0° 00' 00"
Sunlit
Object was in daylight at epoch
Visualization orbit readout
Latitude
Unknown
Longitude
Unknown
Altitude
Unknown
Speed
Unknown
Apparent Right ascension
Unknown
Apparent Declination
Unknown
Sunlit
N/A
Visualization observer readout
Local Sidereal Time
21:12:56
Azimuth
Unknown
Elevation
Unknown
Doppler factor
Unknown
Orbital elements
Apogee altitude
540.94 km
Perigee altitude
539.112 km
Semi-major axis
6,918.163 km
Eccentricity
0.00013
Inclination
53.1599°
RAAN
171.0871°
Arg. of periapsis
65.5984°
True anomaly
294.50083°
Mean anomaly
294.5146°
Eccentric anomaly
294.50771°
Mean motion
3.77187 °/min
Orbital period
95.44 mins
BSTAR
0.000041345
Loading maneuver chart data...
Computing Atmospheric mass density...
Loading historical data...
Loading historical data...
Loading historical data...
Loading historical data...
Loading historical data...
Loading historical data...
Loading historical data...

Documentation

Showing up to 5 results
|